Location: Rowland
(34.5359°N, 79.2929°W)
Time: 17:08:12
(UTC+00:00)

S-56A Canister/Altair - Pass Details

Date: 03 October 2022
Orbit: 638 x 2494 km, 38.9° (Epoch: 06 December)

Event Time Altitude Azimuth Distance (km) Brightness Sun altitude
Exits shadow 09:27:13 30° 292° (WNW) 2,226 9.4 -22.6°
Maximum altitude 09:31:37 65° 4° (N) 1,247 8.5 -21.7°
Drops below altitude 10° 09:37:39 10° 87° (E) 2,548 11.4 -20.5°
Sets 09:39:48 0° 90° (E) 3,328 12.3 -20.0°
